User: anonymous   Login
Location: Helsinki
(60.1699°N, 24.9384°E)
Time: 18:02:46
(UTC+03:00)
Language:

Altair - Orbit

View from above orbital plane
View from above orbital plane
View from above satellite
View from above satellite

Ground track
Ground track

The orbit data is extracted from the following two-line orbital elements,

1 00050U 60009B   21125.27139391 -.00000039  00000-0  42887-3 0  9991
2 00050  47.2303 202.4546 0114379 204.9543 154.5687 12.20116960709517
Epoch (UTC): 05 May 2021 06:30:48
Eccentricity: 0.0114379
inclination: 47.2303°
perigee height: 1501 km
apogee height: 1683 km
right ascension of ascending node: 202.4546°
argument of perigee: 204.9543°
revolutions per day: 12.20116960
mean anomaly at epoch: 154.5687°
orbit number at epoch: 70951

The dashed part of the orbit path shows where the satellite is in the earth's shadow,  

DLR